EDT,Max TemperatureF,Mean TemperatureF,Min TemperatureF,Max Dew PointF,MeanDew PointF,Min DewpointF,Max Humidity, Mean Humidity, Min Humidity, Max Sea Level PressureIn, Mean Sea Level PressureIn, Min Sea Level PressureIn, Max VisibilityMiles, Mean VisibilityMiles, Min VisibilityMiles, Max Wind SpeedMPH, Mean Wind SpeedMPH, Max Gust SpeedMPH,PrecipitationIn, CloudCover, Events, WindDirDegrees
2013-4-1,51,41,31,34,22,15,67,48,28,30.17,30.04,29.86,10,9,2,17,6,24,T,3,Snow,318
2013-4-2,48,35,22,19,14,7,74,47,19,30.30,30.24,30.17,10,10,10,14,2,18,0.00,0,,332
2013-4-3,51,36,20,23,15,11,84,53,21,30.41,30.34,30.28,10,10,9,15,5,21,0.00,0,,73
2013-4-4,60,46,32,24,16,8,64,39,14,30.30,30.13,30.00,10,10,10,12,3,17,0.00,0,,96
2013-4-5,62,46,29,32,25,21,72,49,25,30.13,30.07,30.01,10,10,7,16,5,23,0.00,0,,354
2013-4-6,73,55,37,35,30,24,70,48,25,30.13,30.01,29.83,10,10,10,24,10,36,0.00,0,,162
2013-4-7,75,66,56,54,43,35,72,52,31,29.97,29.90,29.82,10,9,3,22,10,32,0.27,4,Rain-Thunderstorm,230
2013-4-8,73,64,54,57,55,53,100,77,53,29.96,29.89,29.85,10,9,2,24,9,31,0.03,6,Rain,188
2013-4-9,80,67,53,60,56,53,100,73,45,29.99,29.94,29.88,10,10,10,28,10,35,T,2,,192
2013-4-10,82,73,64,67,63,60,93,74,54,29.91,29.83,29.71,10,9,2,23,11,32,0.10,5,Rain-Thunderstorm,205
2013-4-11,75,60,45,61,58,47,100,75,50,29.79,29.65,29.55,10,6,1,20,9,30,1.22,7,Rain-Thunderstorm,226
2013-4-12,48,42,36,46,35,30,100,77,53,29.95,29.76,29.62,10,9,2,20,10,29,0.01,7,Rain,276
2013-4-13,56,47,37,36,33,29,85,60,35,30.02,29.99,29.96,10,10,10,25,9,33,0.00,3,,260
2013-4-14,73,55,36,43,39,35,92,60,27,30.00,29.91,29.79,10,10,10,18,9,25,T,1,Rain,154
2013-4-15,73,65,57,55,51,44,77,65,53,29.97,29.90,29.85,10,10,10,20,9,30,0.00,5,,167
2013-4-16,71,62,53,62,57,52,100,86,72,30.14,30.06,29.89,10,8,2,28,9,47,0.65,6,Rain-Thunderstorm,27
2013-4-17,78,65,52,68,59,52,100,85,69,30.15,30.05,29.88,10,8,2,28,8,38,0.37,6,Rain-Thunderstorm,106
2013-4-18,78,63,48,65,62,54,100,75,50,29.85,29.67,29.58,10,8,2,30,13,41,0.87,6,Rain-Thunderstorm,206
2013-4-19,48,42,36,52,35,28,96,78,60,30.02,29.75,29.57,10,8,2,22,11,31,0.45,8,Rain,277
2013-4-20,52,41,30,33,28,24,92,66,39,30.40,30.21,30.03,10,10,10,13,6,20,0.00,1,,306
2013-4-21,60,47,34,29,26,23,69,46,23,30.51,30.41,30.33,10,10,10,17,6,22,0.00,0,,93
2013-4-22,71,53,35,41,33,27,82,54,26,30.34,30.21,30.08,10,10,10,14,4,17,0.00,0,,135
2013-4-23,66,56,46,58,49,39,93,74,55,30.10,29.97,29.77,10,9,4,17,7,25,0.39,4,Rain,173
2013-4-24,57,45,33,59,44,30,100,77,53,30.25,29.96,29.82,10,8,2,15,7,23,0.59,7,Rain,297
2013-4-25,56,44,32,37,32,27,96,64,32,30.38,30.29,30.24,10,10,10,18,7,26,0.00,1,,260
2013-4-26,64,48,32,42,35,32,100,66,32,30.43,30.38,30.32,10,10,10,12,3,14,0.00,1,,148
2013-4-27,60,51,42,55,46,38,100,76,51,30.32,30.17,29.96,10,10,8,15,6,21,0.03,7,Rain,127
2013-4-28,60,57,54,58,56,54,100,94,87,29.94,29.87,29.84,10,6,2,15,7,20,0.17,8,Rain,204
2013-4-29,70,62,54,56,53,49,100,76,51,30.00,29.94,29.90,10,8,4,12,5,16,0.00,6,,190
2013-4-30,82,66,49,56,53,48,100,70,39,30.02,29.96,29.92,10,9,5,14,6,18,0.00,0,,155